User: anonymous   Login
Location: Unspecified
(0.0000°N, 0.0000°E)
Time: 07:46:55
(UTC+00:00)
Language:

FR-1 - Orbit

View from above orbital plane
View from above orbital plane
View from above satellite
View from above satellite

Ground track
Ground track

The orbit data is extracted from the following two-line orbital elements,

1  1814U 65101A   18112.91419580 +.00000141 +00000-0 +28310-4 0  9991
2  1814 075.8687 057.9678 0006909 243.4140 116.6332 14.66489173619255
Epoch (UTC): 22 April 2018 21:56:26
Eccentricity: 0.0006909
inclination: 75.8687°
perigee height: 667 km
apogee height: 677 km
right ascension of ascending node: 57.9678°
argument of perigee: 243.4140°
revolutions per day: 14.66489173
mean anomaly at epoch: 116.6332°
orbit number at epoch: 61925

The dashed part of the orbit path shows where the satellite is in the earth's shadow,  

DLR